TimeCST,TemperatureF,Dew PointF,Humidity,Sea Level PressureIn,VisibilityMPH,Wind Direction,Wind SpeedMPH,Gust SpeedMPH,PrecipitationIn,Events,Conditions,WindDirDegrees,DateUTC
12:16 AM,8.6,3.2,79,29.72,1.2,South,6.9,-,0.01,Snow,Light Snow,180,2013-02-05 06:16:00
12:26 AM,8.6,3.2,79,29.71,1.0,South,8.1,-,0.01,Snow,Light Snow,170,2013-02-05 06:26:00
12:33 AM,10.4,5.0,79,29.71,1.2,South,9.2,-,0.01,Snow,Light Snow,180,2013-02-05 06:33:00
12:44 AM,10.4,5.0,79,29.70,1.0,South,8.1,-,0.02,Snow,Light Snow,190,2013-02-05 06:44:00
12:53 AM,10.0,5.0,80,29.77,1.0,South,9.2,-,0.02,Snow,Light Snow,170,2013-02-05 06:53:00
1:04 AM,10.4,5.0,79,29.68,1.2,South,8.1,-,0.00,Snow,Light Snow,170,2013-02-05 07:04:00
1:30 AM,10.4,6.8,85,29.66,1.0,SSW,5.8,-,0.01,Snow,Light Snow,200,2013-02-05 07:30:00
1:39 AM,10.4,6.8,85,29.66,1.2,South,8.1,-,0.01,Snow,Light Snow,180,2013-02-05 07:39:00
1:46 AM,10.4,6.8,85,29.67,0.8,SW,4.6,-,0.02,Snow,Light Snow,230,2013-02-05 07:46:00
1:53 AM,10.9,7.0,84,29.75,0.8,South,5.8,-,0.03,Snow,Light Snow,190,2013-02-05 07:53:00
2:02 AM,10.4,6.8,85,29.68,1.2,SSW,4.6,-,0.01,Snow,Light Snow,200,2013-02-05 08:02:00
2:14 AM,10.4,6.8,85,29.66,1.5,South,5.8,-,0.01,Snow,Light Snow,170,2013-02-05 08:14:00
2:24 AM,10.4,6.8,85,29.66,2.5,South,5.8,-,0.01,Snow,Light Snow,180,2013-02-05 08:24:00
2:31 AM,10.4,6.8,85,29.65,4.0,South,5.8,-,0.01,Snow,Light Snow,180,2013-02-05 08:31:00
2:53 AM,10.9,7.0,84,29.71,5.0,South,8.1,-,0.01,Snow,Light Snow,180,2013-02-05 08:53:00
3:11 AM,12.2,8.6,85,29.63,3.0,SSW,5.8,-,0.00,Snow,Light Snow,210,2013-02-05 09:11:00
3:45 AM,12.2,8.6,85,29.63,4.0,SSW,4.6,-,0.00,,Overcast,200,2013-02-05 09:45:00
3:53 AM,12.9,9.0,84,29.70,4.0,South,4.6,-,0.00,,Overcast,190,2013-02-05 09:53:00
4:53 AM,14.0,10.0,84,29.69,4.0,South,4.6,-,N/A,,Overcast,190,2013-02-05 10:53:00
5:53 AM,15.1,12.0,88,29.68,2.5,SSW,3.5,-,N/A,,Overcast,210,2013-02-05 11:53:00
6:53 AM,16.0,12.9,88,29.70,2.5,Calm,Calm,-,N/A,,Overcast,0,2013-02-05 12:53:00
7:43 AM,15.8,12.2,86,29.64,3.0,Calm,Calm,-,N/A,,Overcast,0,2013-02-05 13:43:00
7:53 AM,16.0,12.9,88,29.73,2.0,Calm,Calm,-,N/A,,Overcast,0,2013-02-05 13:53:00
8:04 AM,15.8,14.0,93,29.65,1.8,Calm,Calm,-,N/A,,Overcast,0,2013-02-05 14:04:00
8:20 AM,15.8,14.0,93,29.66,2.0,Calm,Calm,-,N/A,,Overcast,0,2013-02-05 14:20:00
9:03 AM,17.6,14.0,86,29.68,3.0,Calm,Calm,-,N/A,,Overcast,0,2013-02-05 15:03:00
9:32 AM,17.6,14.0,86,29.69,3.0,Calm,Calm,-,0.00,Snow,Light Snow,0,2013-02-05 15:32:00
10:18 AM,17.6,12.2,79,29.72,2.5,Variable,3.5,-,0.00,Snow,Light Snow,0,2013-02-05 16:18:00
10:30 AM,17.6,12.2,79,29.73,3.0,Variable,4.6,-,0.00,Snow,Light Snow,0,2013-02-05 16:30:00
10:53 AM,17.1,12.0,81,29.83,4.0,NNW,5.8,-,0.00,Snow,Light Snow,330,2013-02-05 16:53:00
11:22 AM,17.6,12.2,79,29.77,2.0,Variable,6.9,-,0.00,Snow,Light Snow,0,2013-02-05 17:22:00
11:36 AM,17.6,12.2,79,29.78,3.0,Variable,6.9,-,0.00,Snow,Light Snow,0,2013-02-05 17:36:00
11:53 AM,17.1,10.9,77,29.87,6.0,Variable,6.9,-,0.00,Snow,Light Snow,0,2013-02-05 17:53:00
12:53 PM,19.0,10.9,71,29.90,6.0,NW,8.1,-,0.00,Snow,Light Snow,320,2013-02-05 18:53:00
1:53 PM,21.0,10.9,65,29.91,10.0,North,4.6,-,0.00,,Mostly Cloudy,10,2013-02-05 19:53:00
2:11 PM,21.2,10.4,63,29.84,10.0,North,5.8,-,N/A,,Partly Cloudy,350,2013-02-05 20:11:00
2:53 PM,21.9,10.0,60,29.93,10.0,Variable,4.6,-,N/A,,Clear,0,2013-02-05 20:53:00
3:53 PM,21.9,8.1,55,29.96,10.0,Variable,5.8,-,N/A,,Clear,0,2013-02-05 21:53:00
4:53 PM,19.9,5.0,52,29.98,10.0,Variable,3.5,-,N/A,,Clear,0,2013-02-05 22:53:00
5:53 PM,14.0,5.0,67,30.02,10.0,Calm,Calm,-,N/A,,Clear,0,2013-02-05 23:53:00
6:53 PM,3.9,-0.0,84,30.05,10.0,Calm,Calm,-,N/A,,Clear,0,2013-02-06 00:53:00
7:53 PM,-0.0,-5.1,79,30.07,10.0,Calm,Calm,-,N/A,,Clear,0,2013-02-06 01:53:00
8:53 PM,-5.1,-9.0,83,30.09,10.0,Calm,Calm,-,N/A,,Partly Cloudy,0,2013-02-06 02:53:00
9:53 PM,-5.1,-9.0,83,30.12,10.0,Calm,Calm,-,N/A,,Mostly Cloudy,0,2013-02-06 03:53:00
10:53 PM,-5.1,-11.0,76,30.12,10.0,Calm,Calm,-,N/A,,Scattered Clouds,0,2013-02-06 04:53:00
11:53 PM,-6.0,-11.9,75,30.13,10.0,Calm,Calm,-,N/A,,Partly Cloudy,0,2013-02-06 05:53:00